Location: Ditterswind
(50.1692°N, 10.6348°E)
Time: 18:21:44
(UTC+00:00)

MOZ.5/SAFIR/RUBIN 5/SL-8 - Pass Details

Date: 07 June 2020
Orbit: 679 x 705 km, 98.1° (Epoch: 09 July)

Event Time Altitude Azimuth Distance (km) Brightness Sun altitude
Exits shadow 00:29:15 17° 157° (SSE) 1,691 5.4 -15.3°
Maximum altitude 00:32:48 76° 74° (ENE) 706 3.9 -15.1°
Drops below altitude 10° 00:37:28 10° 349° (NNW) 2,139 7.2 -14.9°
Sets 00:39:44 0° 348° (NNW) 3,063 8.2 -14.7°
